Regional Weather Roundup
Issued by NWS

Home | Current Version | Previous Version | Graphics & Text | Print | Product List | Glossary On
Versions: 1 2 3 4 5 6 7 8 9 10 11 12 13 14 15 16 17 18 19 20 21 22 23 24 25 26 27 28 29 30 31 32 33 34 35 36 37 38 39 40 41 42 43 44 45 46 47 48 49 50
000
ASUS45 KTFX 280210
RWRMT
MONTANA REGIONAL WEATHER ROUNDUP
NATIONAL WEATHER SERVICE GREAT FALLS MT
800 PM MDT THU APR 27 2017

NOTE: "FAIR" INDICATES FEW OR NO CLOUDS BELOW 12000 FEET WITH NO
SIGNIFICANT WEATHER AND/OR OBSTRUCTIONS TO VISIBILITY.

MTZ001>007-043-280300-
WEST OF THE DIVIDE

CITY           SKY/WX    TMP DP  RH WIND       PRES   REMARKS
KALISPELL      CLOUDY    42  38  85 SE10      29.84S
MISSOULA       PTCLDY    46  29  51 W9        29.86S
BUTTE          CLOUDY    36  24  62 NW13      29.81R WCI  27
MULLAN PASS    CLOUDY    27  27 100 VRB5      29.85R
ANACONDA         N/A     36  25  64 W13G18    29.82R WCI  27
DEER LODGE       N/A     41  23  48 W12       29.83R
EUREKA           N/A     46  34  61 SW5       29.82R
HAMILTON         N/A     43  21  42 W9        29.88R
LIBBY            N/A     46  30  53 SE6       29.84R
PLAINS           N/A     47  32  56 W7        29.90R
$$

MTZ008-052>055-280300-
SOUTHWEST MONTANA

CITY           SKY/WX    TMP DP  RH WIND       PRES   REMARKS
BOZEMAN        LGT RAIN  39  33  79 W9        29.78R
DILLON         FLURRIES  38  28  67 SW5       29.78R
W YELLOWSTONE  CLOUDY    32  27  80 E6        29.75R WCI  26
ENNIS          FOG       32  32 100 CALM      29.84S VSB 1
THREE FORKS      N/A     41  38  89 CALM      29.81R
TWIN BRIDGES     N/A     41  24  51 N13       29.80R
$$

MTZ009-010-012-014-046-048-049-054-280300-
EAST SLOPES AND CENTRAL MONTANA

CITY           SKY/WX    TMP DP  RH WIND       PRES   REMARKS
CUT BANK       PTCLDY    41  30  65 CALM      29.79R
GREAT FALLS    CLOUDY    41  35  79 N7        29.81R
MALMSTROM AFB  CLOUDY    41  37  87 N5        29.82R
HELENA         CLOUDY    43  33  68 E8        29.80R
AUGUSTA        CLOUDY    37  34  88 NE7       29.80R
BOWMANS CRNR   MOCLDY    39  33  78 NE12      29.78R WCI  31
CHOTEAU          N/A     39  36  87 CALM      29.83R
FAIRFIELD      MOCLDY    40  33  77 N6        29.80R
POWER          LGT RAIN  38  36  91 N9        29.80R WCI  31
RAYNESFORD     LGT SNOW  34  34  99 W7        29.81R WCI  28
ULM            CLOUDY    39  36  89 NE3       29.82R
$$

MTZ011-013-016-021-045-047-050-051-280300-
NORTH CENTRAL MONTANA

CITY           SKY/WX    TMP DP  RH WIND       PRES   REMARKS
HAVRE          PTCLDY    44  37  76 NE7       29.79R
LEWISTOWN      CLOUDY    38  36  92 NW10      29.75R WCI  31
N BAR RANCH    CLOUDY    39  36  87 NW9G15    29.75R
CHINOOK          N/A     45  37  76 N5        29.79R
DENTON         MOCLDY    41  37  86 NW20      29.73R
FORT BENTON      N/A     43  37  81 N2        29.81R
GEYSER         MOCLDY    38  36  92 N12       29.78R WCI  31
GRASS RANGE    MOCLDY    42  37  83 W8        29.71R
JUDITH GAP     DRIZZLE   37  34  90 N18G28    29.75R WCI  26
STANFORD       CLOUDY    36  35  96 NW10      29.77R WCI  28
WINIFRED       LGT RAIN  39  38  96 N10       29.75R
$$

MTZ017>020-022>027-061-062-280300-
NORTHEAST MONTANA

CITY           SKY/WX    TMP DP  RH WIND       PRES   REMARKS
GLASGOW        CLOUDY    51  19  28 E12       29.74R
JORDAN           N/A     52  29  41 E3        29.71R
SIDNEY         CLEAR     47  17  30 NE8       29.77R
WOLF POINT     MOCLDY    48  18  30 E9        29.76R
MALTA          CLOUDY    45  39  81 N17       29.74R
PLENTYWOOD       N/A     45  14  29 E6        29.80R
POPLAR           N/A     46  14  27 E7        29.77R
$$

MTZ028>42-056>058-280300-
SOUTHCENTRAL AND SOUTHEAST MONTANA

CITY           SKY/WX    TMP DP  RH WIND       PRES   REMARKS
BAKER          PTCLDY    45  26  47 E9        29.73R
BILLINGS       HVY RAIN  39  36  89 N12       29.73R WCI  32
LIVINGSTON     CLOUDY    41  31  67 NW14      29.76R
MILES CITY     CLOUDY    50  26  39 E7        29.70R
BIG TIMBER     MOCLDY    39  36  87 CALM      29.78R FOG
LAUREL           N/A     41  33  73 N5        29.75R
ROUNDUP          N/A     41  35  79 NW5       29.68R
$$

REGIONAL REPORTS...DAKOTAS

CITY           SKY/WX    TMP DP  RH WIND       PRES   REMARKS
WILLISTON      CLEAR     45  17  32 E9        29.79R
MINOT          CLEAR     43  23  45 N8        29.78R
DICKINSON      CLEAR     39  20  46 NE7       29.73R
BEACH            N/A     39  21  48 E8        29.78R
TIOGA            N/A     39  12  33 E9        29.81R
WATFORD CITY     N/A     45  18  33 E6        29.78R
BISMARCK       CLEAR     46  25  43 NE6       29.77R
GRAND FORKS    CLOUDY    38  33  82 N6        29.76R
FARGO          MOCLDY    37  30  75 NE3       29.73R
BUFFALO SD       N/A     42  27  55 E13       29.65R
RAPID CITY     CLOUDY    43  32  65 E10       29.69R
$$

REGIONAL REPORTS...WYOMING/IDAHO/WASHINGTON

CITY           SKY/WX    TMP DP  RH WIND       PRES   REMARKS
GILLETTE       LGT SNOW  34  33  96 N5        29.66R
SHERIDAN       LGT SNOW  33  32  96 W6        29.71R FOG     WCI  28
BUFFALO WY     SNOW      34  31  88 NW17G26   29.67R VSB 1/2 WCI  23
CODY           CLOUDY    37  33  85 N17G23    29.71R WCI  27
YELLOWSTONE LA   N/A     26  22  84 VRB3      29.75R
IDAHO FALLS    CLOUDY    38  33  82 S9        29.81R WCI  31
SALMON         MOCLDY    43  19  39 NW7       29.83R
BOISE          CLEAR     49  24  37 N13       29.92S
SPOKANE        LGT RAIN  49  32  52 VRB3      29.88R
$$

REGIONAL REPORTS...ALBERTA

CITY           SKY/WX    TMP DP  RH WIND       PRES   REMARKS
EDMONTON       PTCLDY    41  30  65 E5        29.87R
CALGARY        LGT RAIN  41  28  60 NE12      29.80R
LETHBRIDGE     CLOUDY    43  36  75 N8        29.79R
MEDICINE HAT   MOCLDY    46  27  46 NW5       29.79R
MILK RIVER       N/A     43  34  70 SE3         N/A
ONEFOUR          N/A     45  30  57 N9          N/A
$$

REGIONAL REPORTS...SASKATCHEWAN

CITY           SKY/WX    TMP DP  RH WIND       PRES   REMARKS
SWIFT CURRENT  CLOUDY    39  37  93 SE7       29.80R
REGINA         PTCLDY    46  10  23 E6        29.82R
SASKATOON      CLOUDY    45  14  29 E10       29.86S
CYPRESS HILLS    N/A     37  25  60 N6          N/A
VAL MARIE        N/A     41  36  81 N15         N/A
ASSINIBOIA       N/A     37  36  93 N8          N/A  WCI  31
$$



USA.gov is the U.S. government's official web portal to all federal, state and local government web resources and services.